User: anonymous   Login
Location: Unspecified
(0.0000°N, 0.0000°E)
Time: 09:19:11
(UTC+00:00)
Language:

COSMOS 2484 - Orbit

View from above orbital plane
View from above orbital plane
View from above satellite
View from above satellite

Ground track
Ground track

The orbit data is extracted from the following two-line orbital elements,

1 39059U 13001C   17268.86072931 +.00000010 +00000-0 +00000-0 0  9992
2 39059 082.5031 042.9811 0025681 144.1092 216.1719 12.42888509212936
Epoch (UTC): 25 September 2017 20:39:27
Eccentricity: 0.0025681
inclination: 82.5031°
perigee height: 1474 km
apogee height: 1514 km
right ascension of ascending node: 42.9811°
argument of perigee: 144.1092°
revolutions per day: 12.42888509
mean anomaly at epoch: 216.1719°
orbit number at epoch: 21293

The dashed part of the orbit path shows where the satellite is in the earth's shadow,  

DLR